Details From KLHM - Lincoln Rgnl Karl Harder Fld
To KACV - Arcata
Flight Number -
Tags Decoded
Created
Modified
Stats Distance 193 nm / 358 km
Max Altitude 0 ft / 0 m
Waypoints 6
Social Downloads 1
Likes 0
Share VATSIM

Download

Looking for another format? Having issues loading an existing format? Contact us
Advertisement - Login to hide

Notes

Decoded

Route

KLHM MRGGO RBL YAGER KNEES KACV

ID Type Via Altitude Latitude Longitude Leg Dist Tot Dist Heading (true) Name
O KLHM APT - 0 ft / 0 m 38.91713˚ -121.35401˚ - 0 nm - -
MRGGO FIX - 0 ft / 0 m 39.22231˚ -121.27867˚ 18 nm 18 nm 11° / 11° -
RBL VOR - 0 ft / 0 m 40.09892˚ -122.23636˚ 68 nm 87 nm 320° / 320° RED BLUFF VORTAC
YAGER FIX - 0 ft / 0 m 40.55736˚ -123.82431˚ 77 nm 165 nm 291° / 290° -
KNEES FIX - 0 ft / 0 m 40.75242˚ -123.95542˚ 13 nm 178 nm 333° / 333° -
O KACV APT - 0 ft / 0 m 40.97246˚ -124.11292˚ 15 nm 193 nm 332° / 332° -

Altitude Profile

Advertisement - Login to hide

Weather


0- 5 10 15 20 25 30 35+ Temperature / ° C

Clouds and Precipitation
Forecast for 2018-05-22 18:00 UTC. Updated 32 minutes ago

Ground ~20,000 ft ~40,000 ft Winds

KLHM

Details ICAO KLHM
Name LINCOLN RGNL KARL HARDER FLD
Region United States
Timezone America/Los_Angeles (UTC-7.0)
Stats Elevation 121 ft / 37 m (AMSL)
Location 38.909163° -121.351337°
Runways 1
Magnetic Variation 13.534° E

METAR

KLHM 221735Z AUTO 19005KT 10SM CLR 20/11 A2986 RMK AO1

Decode

TAF

Not found

Departure Runways

ID Width Length Bearing (true) Bearing (mag) Surface Threshold Offset Overrun Length
15 100 ft / 30 m 6,011 ft / 1,832 m 165.37° 151.84° Asphalt 0 ft / 0 m 0 ft / 0 m
33 100 ft / 30 m 6,011 ft / 1,832 m 345.37° 331.84° Asphalt 0 ft / 0 m 0 ft / 0 m

KACV

Details ICAO KACV (ACV)
Name Arcata
Region United States
Timezone America/Los_Angeles (UTC-7.0)
Stats Elevation 221 ft / 67 m (AMSL)
Location 40.978077° -124.108638°
Runways 2
Magnetic Variation 14.412° E

METAR

KACV 221653Z AUTO 19003KT 10SM OVC009 13/10 A2990 RMK AO2 SLP130 T01280100

Decode

TAF

TAF AMD KACV 221515Z 2215/2312 34005KT P6SM SCT008 OVC010 TEMPO 2216/2218 5SM BR BKN008 FM222000 29007KT P6SM OVC015 FM230200 VRB06KT 5SM -DZ OVC008 FM230900 VRB03KT 4SM -DZ OVC004

Decode

Destination Runways

ID Width Length Bearing (true) Bearing (mag) Surface Threshold Offset Overrun Length
01 151 ft / 46 m 4,501 ft / 1,372 m 29.65° 15.24° Asphalt 0 ft / 0 m 0 ft / 0 m
14 151 ft / 46 m 6,005 ft / 1,830 m 152.84° 138.43° Asphalt 787 ft / 240 m 223 ft / 68 m
19 151 ft / 46 m 4,501 ft / 1,372 m 209.65° 195.24° Asphalt 0 ft / 0 m 0 ft / 0 m
32 151 ft / 46 m 6,005 ft / 1,830 m 332.84° 318.43° Asphalt 0 ft / 0 m 0 ft / 0 m

Approach Navaids

Runway Type Ident Frequency Range Bearing (true) Bearing (mag) Slope Elevation
32 Localiser IACV 109.50 MHz 18 nm / 33 km 332.81° 318.40° - 180 ft / 55 m (AMSL)
32 Glidescope IACV 109.50 MHz 10 nm / 19 km 332.84° 318.43° 3.00° 215 ft / 66 m (AMSL)
32 DME IACV 109.50 MHz 18 nm / 33 km - - - 221 ft / 67 m (AMSL)